PRIVATE WETTERSTATION BILLIGHEIM-ALLFELD                       ZURCK
Wetterdaten: Montag, 20.03.2017
Datum Zeit Temp. A. Temp. A. min Temp. A. max Feuchte A. Luftdruck Regen Wind Richtung Richtung Sonnenschein ET Solar Taupunkt Windchill Windben Empfang
20.03.2017 00:00 9,7 C 9,7 C 9,7 C 90 % 1011,8 hPa 0,0 l/m 14,5 km/h (3 Bft) SW 225 0 min 0,025 mm 0 W/m 8,1 C 5,0 C 30,6 km/h (5 Bft) 90 %
20.03.2017 00:10 9,6 C 9,6 C 9,7 C 89 % 1011,9 hPa 0,0 l/m 14,5 km/h (3 Bft) SW 225 0 min 0,000 mm 0 W/m 7,9 C 4,9 C 33,8 km/h (5 Bft) 100 %
20.03.2017 00:20 9,6 C 9,6 C 9,6 C 89 % 1012,1 hPa 0,0 l/m 12,9 km/h (3 Bft) SW 225 0 min 0,000 mm 0 W/m 7,9 C 5,6 C 27,4 km/h (4 Bft) 100 %
20.03.2017 00:30 9,6 C 9,6 C 9,6 C 89 % 1011,8 hPa 0,0 l/m 11,3 km/h (2 Bft) SW 225 0 min 0,000 mm 0 W/m 7,9 C 6,4 C 33,8 km/h (5 Bft) 100 %
20.03.2017 00:40 9,6 C 9,6 C 9,6 C 88 % 1012,0 hPa 0,0 l/m 12,9 km/h (3 Bft) SW 225 0 min 0,000 mm 0 W/m 7,7 C 5,6 C 30,6 km/h (5 Bft) 100 %
20.03.2017 00:50 9,6 C 9,6 C 9,6 C 87 % 1012,2 hPa 0,0 l/m 9,7 km/h (2 Bft) SW 225 0 min 0,000 mm 0 W/m 7,5 C 7,3 C 24,1 km/h (4 Bft) 100 %
20.03.2017 01:00 9,6 C 9,6 C 9,6 C 85 % 1012,0 hPa 0,0 l/m 11,3 km/h (2 Bft) SW 225 0 min 0,025 mm 0 W/m 7,2 C 6,4 C 30,6 km/h (5 Bft) 100 %
20.03.2017 01:10 9,7 C 9,6 C 9,7 C 84 % 1012,2 hPa 0,0 l/m 12,9 km/h (3 Bft) SW 225 0 min 0,000 mm 0 W/m 7,1 C 5,7 C 29,0 km/h (5 Bft) 100 %
20.03.2017 01:20 9,8 C 9,7 C 9,8 C 84 % 1012,1 hPa 0,0 l/m 11,3 km/h (2 Bft) SW 225 0 min 0,000 mm 0 W/m 7,2 C 6,6 C 29,0 km/h (5 Bft) 100 %
20.03.2017 01:30 9,7 C 9,7 C 9,8 C 82 % 1012,1 hPa 0,0 l/m 11,3 km/h (2 Bft) W-SW 247 0 min 0,000 mm 0 W/m 6,8 C 6,5 C 27,4 km/h (4 Bft) 100 %
20.03.2017 01:40 9,8 C 9,7 C 9,8 C 80 % 1012,2 hPa 0,0 l/m 14,5 km/h (3 Bft) W-SW 247 0 min 0,000 mm 0 W/m 6,5 C 5,1 C 29,0 km/h (5 Bft) 100 %
20.03.2017 01:50 9,8 C 9,8 C 9,8 C 80 % 1012,2 hPa 0,0 l/m 12,9 km/h (3 Bft) W-SW 247 0 min 0,000 mm 0 W/m 6,5 C 5,8 C 29,0 km/h (5 Bft) 100 %
20.03.2017 02:00 9,8 C 9,8 C 9,9 C 80 % 1012,2 hPa 0,0 l/m 9,7 km/h (2 Bft) W 270 0 min 0,025 mm 0 W/m 6,5 C 7,6 C 27,4 km/h (4 Bft) 100 %
20.03.2017 02:10 9,8 C 9,8 C 9,8 C 81 % 1012,1 hPa 0,0 l/m 9,7 km/h (2 Bft) W-SW 247 0 min 0,000 mm 0 W/m 6,7 C 7,6 C 22,5 km/h (4 Bft) 100 %
20.03.2017 02:20 9,7 C 9,7 C 9,8 C 82 % 1012,1 hPa 0,0 l/m 11,3 km/h (2 Bft) W-SW 247 0 min 0,000 mm 0 W/m 6,8 C 6,5 C 27,4 km/h (4 Bft) 100 %
20.03.2017 02:30 9,7 C 9,7 C 9,7 C 82 % 1012,0 hPa 0,0 l/m 12,9 km/h (3 Bft) W-SW 247 0 min 0,000 mm 0 W/m 6,8 C 5,7 C 30,6 km/h (5 Bft) 100 %
20.03.2017 02:40 9,6 C 9,6 C 9,7 C 81 % 1012,0 hPa 0,0 l/m 8,0 km/h (2 Bft) W-SW 247 0 min 0,000 mm 0 W/m 6,5 C 8,4 C 20,9 km/h (4 Bft) 100 %
20.03.2017 02:50 9,6 C 9,6 C 9,6 C 79 % 1012,0 hPa 0,0 l/m 9,7 km/h (2 Bft) W-SW 247 0 min 0,000 mm 0 W/m 6,1 C 7,3 C 22,5 km/h (4 Bft) 100 %
20.03.2017 03:00 9,7 C 9,6 C 9,7 C 78 % 1012,0 hPa 0,0 l/m 11,3 km/h (2 Bft) W-SW 247 0 min 0,025 mm 0 W/m 6,1 C 6,5 C 22,5 km/h (4 Bft) 100 %
20.03.2017 03:10 9,7 C 9,6 C 9,7 C 77 % 1012,0 hPa 0,0 l/m 11,3 km/h (2 Bft) W-SW 247 0 min 0,000 mm 0 W/m 5,9 C 6,5 C 24,1 km/h (4 Bft) 100 %
20.03.2017 03:20 9,7 C 9,7 C 9,7 C 77 % 1012,0 hPa 0,0 l/m 8,0 km/h (2 Bft) W 270 0 min 0,000 mm 0 W/m 5,9 C 8,5 C 17,7 km/h (3 Bft) 100 %
20.03.2017 03:30 9,7 C 9,7 C 9,7 C 78 % 1011,9 hPa 0,0 l/m 11,3 km/h (2 Bft) W-SW 247 0 min 0,000 mm 0 W/m 6,1 C 6,5 C 25,7 km/h (4 Bft) 100 %
20.03.2017 03:40 9,7 C 9,7 C 9,7 C 79 % 1011,9 hPa 0,0 l/m 11,3 km/h (2 Bft) W-SW 247 0 min 0,000 mm 0 W/m 6,2 C 6,5 C 22,5 km/h (4 Bft) 100 %
20.03.2017 03:50 9,6 C 9,6 C 9,7 C 78 % 1011,9 hPa 0,0 l/m 11,3 km/h (2 Bft) W 270 0 min 0,000 mm 0 W/m 6,0 C 6,4 C 25,7 km/h (4 Bft) 100 %
20.03.2017 04:00 9,7 C 9,6 C 9,7 C 79 % 1011,9 hPa 0,0 l/m 12,9 km/h (3 Bft) W-SW 247 0 min 0,025 mm 0 W/m 6,2 C 5,7 C 30,6 km/h (5 Bft) 100 %
20.03.2017 04:10 9,6 C 9,6 C 9,6 C 79 % 1011,9 hPa 0,0 l/m 11,3 km/h (2 Bft) W-SW 247 0 min 0,000 mm 0 W/m 6,1 C 6,4 C 27,4 km/h (4 Bft) 100 %
20.03.2017 04:20 9,6 C 9,6 C 9,6 C 79 % 1011,9 hPa 0,0 l/m 11,3 km/h (2 Bft) W 270 0 min 0,000 mm 0 W/m 6,1 C 6,4 C 29,0 km/h (5 Bft) 100 %
20.03.2017 04:30 9,4 C 9,4 C 9,6 C 79 % 1011,9 hPa 0,0 l/m 9,7 km/h (2 Bft) W-SW 247 0 min 0,000 mm 0 W/m 5,9 C 7,1 C 20,9 km/h (4 Bft) 99 %
20.03.2017 04:40 9,4 C 9,4 C 9,4 C 78 % 1011,9 hPa 0,0 l/m 8,0 km/h (2 Bft) W-SW 247 0 min 0,000 mm 0 W/m 5,8 C 8,2 C 20,9 km/h (4 Bft) 100 %
20.03.2017 04:50 9,4 C 9,4 C 9,4 C 78 % 1012,0 hPa 0,0 l/m 9,7 km/h (2 Bft) W-SW 247 0 min 0,000 mm 0 W/m 5,8 C 7,1 C 22,5 km/h (4 Bft) 100 %
20.03.2017 05:00 9,4 C 9,3 C 9,4 C 77 % 1012,0 hPa 0,0 l/m 9,7 km/h (2 Bft) W-SW 247 0 min 0,025 mm 0 W/m 5,6 C 7,1 C 30,6 km/h (5 Bft) 100 %
20.03.2017 05:10 9,3 C 9,3 C 9,4 C 76 % 1011,9 hPa 0,0 l/m 11,3 km/h (2 Bft) W 270 0 min 0,000 mm 0 W/m 5,3 C 6,1 C 30,6 km/h (5 Bft) 100 %
20.03.2017 05:20 9,3 C 9,3 C 9,3 C 75 % 1012,1 hPa 0,0 l/m 11,3 km/h (2 Bft) W 270 0 min 0,000 mm 0 W/m 5,1 C 6,1 C 25,7 km/h (4 Bft) 100 %
20.03.2017 05:30 9,3 C 9,3 C 9,3 C 75 % 1012,1 hPa 0,0 l/m 4,8 km/h (1 Bft) W 270 0 min 0,000 mm 0 W/m 5,1 C 9,3 C 19,3 km/h (3 Bft) 100 %
20.03.2017 05:40 9,3 C 9,3 C 9,3 C 75 % 1012,1 hPa 0,0 l/m 6,4 km/h (2 Bft) W-SW 247 0 min 0,000 mm 0 W/m 5,1 C 9,3 C 22,5 km/h (4 Bft) 100 %
20.03.2017 05:50 9,2 C 9,2 C 9,3 C 76 % 1012,2 hPa 0,0 l/m 4,8 km/h (1 Bft) W-SW 247 0 min 0,000 mm 0 W/m 5,2 C 9,2 C 22,5 km/h (4 Bft) 100 %
20.03.2017 06:00 9,2 C 9,2 C 9,2 C 76 % 1012,2 hPa 0,0 l/m 1,6 km/h (1 Bft) W 270 0 min 0,025 mm 0 W/m 5,2 C 9,2 C 14,5 km/h (3 Bft) 100 %
20.03.2017 06:10 9,2 C 9,2 C 9,2 C 77 % 1012,4 hPa 0,0 l/m 3,2 km/h (1 Bft) SW 225 0 min 0,000 mm 0 W/m 5,4 C 9,2 C 12,9 km/h (3 Bft) 100 %
20.03.2017 06:20 9,2 C 9,2 C 9,2 C 79 % 1012,5 hPa 0,0 l/m 4,8 km/h (1 Bft) SW 225 0 min 0,000 mm 0 W/m 5,8 C 9,2 C 17,7 km/h (3 Bft) 100 %
20.03.2017 06:30 9,2 C 9,2 C 9,2 C 81 % 1012,4 hPa 0,0 l/m 8,0 km/h (2 Bft) SW 225 0 min 0,000 mm 0 W/m 6,1 C 8,0 C 17,7 km/h (3 Bft) 100 %
20.03.2017 06:40 9,1 C 9,1 C 9,2 C 82 % 1012,4 hPa 0,0 l/m 9,7 km/h (2 Bft) W-SW 247 0 min 0,000 mm 7 W/m 6,2 C 6,8 C 22,5 km/h (4 Bft) 100 %
20.03.2017 06:50 9,1 C 9,1 C 9,2 C 82 % 1012,3 hPa 0,0 l/m 9,7 km/h (2 Bft) W-SW 247 0 min 0,000 mm 12 W/m 6,2 C 6,8 C 22,5 km/h (4 Bft) 100 %
20.03.2017 07:00 9,1 C 9,0 C 9,1 C 82 % 1012,4 hPa 0,0 l/m 9,7 km/h (2 Bft) SW 225 0 min 0,025 mm 18 W/m 6,2 C 6,8 C 22,5 km/h (4 Bft) 100 %
20.03.2017 07:10 9,1 C 9,1 C 9,1 C 82 % 1012,4 hPa 0,0 l/m 8,0 km/h (2 Bft) SW 225 0 min 0,000 mm 21 W/m 6,2 C 7,9 C 20,9 km/h (4 Bft) 100 %
20.03.2017 07:20 9,1 C 9,1 C 9,1 C 82 % 1012,2 hPa 0,0 l/m 8,0 km/h (2 Bft) SW 225 0 min 0,000 mm 40 W/m 6,2 C 7,9 C 22,5 km/h (4 Bft) 100 %
20.03.2017 07:30 9,1 C 9,1 C 9,1 C 81 % 1012,3 hPa 0,0 l/m 8,0 km/h (2 Bft) SW 225 0 min 0,000 mm 44 W/m 6,0 C 7,9 C 19,3 km/h (3 Bft) 100 %
20.03.2017 07:40 9,2 C 9,1 C 9,2 C 81 % 1012,3 hPa 0,0 l/m 8,0 km/h (2 Bft) W 270 0 min 0,000 mm 86 W/m 6,1 C 8,0 C 19,3 km/h (3 Bft) 100 %
20.03.2017 07:50 9,3 C 9,2 C 9,3 C 80 % 1012,4 hPa 0,0 l/m 11,3 km/h (2 Bft) W-SW 247 0 min 0,000 mm 81 W/m 6,0 C 6,1 C 27,4 km/h (4 Bft) 100 %
20.03.2017 08:00 9,4 C 9,3 C 9,5 C 79 % 1012,5 hPa 0,0 l/m 11,3 km/h (2 Bft) W-SW 247 0 min 0,051 mm 86 W/m 5,9 C 6,2 C 27,4 km/h (4 Bft) 100 %
20.03.2017 08:10 9,6 C 9,5 C 9,6 C 80 % 1012,5 hPa 0,0 l/m 11,3 km/h (2 Bft) W-SW 247 0 min 0,000 mm 79 W/m 6,3 C 6,4 C 30,6 km/h (5 Bft) 100 %
20.03.2017 08:20 9,6 C 9,6 C 9,6 C 80 % 1012,3 hPa 0,0 l/m 6,4 km/h (2 Bft) W 270 0 min 0,000 mm 91 W/m 6,3 C 9,6 C 20,9 km/h (4 Bft) 100 %
20.03.2017 08:30 9,7 C 9,6 C 9,7 C 79 % 1012,5 hPa 0,0 l/m 9,7 km/h (2 Bft) W-SW 247 0 min 0,000 mm 91 W/m 6,2 C 7,4 C 20,9 km/h (4 Bft) 100 %
20.03.2017 08:40 9,7 C 9,7 C 9,8 C 79 % 1012,5 hPa 0,0 l/m 8,0 km/h (2 Bft) SW 225 0 min 0,000 mm 84 W/m 6,2 C 8,5 C 17,7 km/h (3 Bft) 100 %
20.03.2017 08:50 9,8 C 9,7 C 9,8 C 80 % 1012,5 hPa 0,0 l/m 8,0 km/h (2 Bft) SW 225 0 min 0,000 mm 107 W/m 6,5 C 8,6 C 17,7 km/h (3 Bft) 100 %
20.03.2017 09:00 9,9 C 9,8 C 9,9 C 79 % 1012,4 hPa 0,0 l/m 8,0 km/h (2 Bft) S-SW 202 0 min 0,051 mm 111 W/m 6,4 C 8,7 C 19,3 km/h (3 Bft) 100 %
20.03.2017 09:10 10,1 C 9,9 C 10,1 C 79 % 1012,3 hPa 0,0 l/m 9,7 km/h (2 Bft) SW 225 10 min 0,000 mm 171 W/m 6,6 C 7,9 C 20,9 km/h (4 Bft) 100 %
20.03.2017 09:20 10,3 C 10,1 C 10,3 C 79 % 1012,2 hPa 0,0 l/m 11,3 km/h (2 Bft) SW 225 10 min 0,000 mm 306 W/m 6,8 C 7,2 C 22,5 km/h (4 Bft) 100 %
20.03.2017 09:30 10,8 C 10,3 C 10,8 C 75 % 1012,2 hPa 0,0 l/m 11,3 km/h (2 Bft) SW 225 10 min 0,000 mm 427 W/m 6,5 C 7,8 C 22,5 km/h (4 Bft) 100 %
20.03.2017 09:40 10,9 C 10,8 C 10,9 C 76 % 1012,2 hPa 0,0 l/m 8,0 km/h (2 Bft) SW 225 10 min 0,000 mm 246 W/m 6,8 C 9,8 C 19,3 km/h (3 Bft) 100 %
20.03.2017 09:50 11,1 C 10,9 C 11,1 C 76 % 1012,3 hPa 0,0 l/m 4,8 km/h (1 Bft) W-SW 247 10 min 0,000 mm 239 W/m 7,0 C 11,1 C 12,9 km/h (3 Bft) 100 %
20.03.2017 10:00 11,2 C 11,1 C 11,2 C 72 % 1012,3 hPa 0,0 l/m 9,7 km/h (2 Bft) W-SW 247 10 min 0,127 mm 202 W/m 6,3 C 9,1 C 30,6 km/h (5 Bft) 100 %
20.03.2017 10:10 11,2 C 11,1 C 11,2 C 72 % 1012,3 hPa 0,0 l/m 16,1 km/h (3 Bft) W-SW 247 10 min 0,000 mm 255 W/m 6,3 C 6,2 C 33,8 km/h (5 Bft) 100 %
20.03.2017 10:20 11,4 C 11,2 C 11,4 C 71 % 1012,4 hPa 0,0 l/m 12,9 km/h (3 Bft) W 270 10 min 0,000 mm 325 W/m 6,3 C 7,7 C 33,8 km/h (5 Bft) 100 %
20.03.2017 10:30 11,7 C 11,4 C 11,7 C 71 % 1012,4 hPa 0,0 l/m 12,9 km/h (3 Bft) W-SW 247 10 min 0,000 mm 350 W/m 6,6 C 8,1 C 29,0 km/h (5 Bft) 100 %
20.03.2017 10:40 11,8 C 11,7 C 11,8 C 68 % 1012,4 hPa 0,0 l/m 16,1 km/h (3 Bft) SW 225 10 min 0,000 mm 279 W/m 6,1 C 6,9 C 29,0 km/h (5 Bft) 100 %
20.03.2017 10:50 11,8 C 11,8 C 11,8 C 68 % 1012,3 hPa 0,0 l/m 12,9 km/h (3 Bft) W-SW 247 10 min 0,000 mm 239 W/m 6,1 C 8,2 C 24,1 km/h (4 Bft) 100 %
20.03.2017 11:00 11,8 C 11,8 C 11,8 C 69 % 1012,2 hPa 0,0 l/m 12,9 km/h (3 Bft) W-SW 247 10 min 0,178 mm 267 W/m 6,3 C 8,2 C 25,7 km/h (4 Bft) 100 %
20.03.2017 11:10 11,7 C 11,7 C 11,8 C 69 % 1012,1 hPa 0,0 l/m 12,9 km/h (3 Bft) SW 225 10 min 0,000 mm 169 W/m 6,2 C 8,1 C 30,6 km/h (5 Bft) 100 %
20.03.2017 11:20 11,7 C 11,7 C 11,7 C 69 % 1012,1 hPa 0,0 l/m 16,1 km/h (3 Bft) SW 225 10 min 0,000 mm 295 W/m 6,2 C 6,8 C 33,8 km/h (5 Bft) 100 %
20.03.2017 11:30 12,1 C 11,7 C 12,1 C 69 % 1012,0 hPa 0,0 l/m 11,3 km/h (2 Bft) SW 225 10 min 0,000 mm 388 W/m 6,6 C 9,3 C 20,9 km/h (4 Bft) 100 %
20.03.2017 11:40 12,8 C 12,1 C 12,8 C 70 % 1012,0 hPa 0,0 l/m 14,5 km/h (3 Bft) SW 225 10 min 0,000 mm 946 W/m 7,5 C 8,7 C 24,1 km/h (4 Bft) 100 %
20.03.2017 11:50 12,9 C 12,8 C 13,2 C 66 % 1011,9 hPa 0,0 l/m 17,7 km/h (3 Bft) SW 225 10 min 0,000 mm 884 W/m 6,7 C 7,7 C 37,0 km/h (5 Bft) 100 %
20.03.2017 12:00 12,4 C 12,4 C 12,9 C 68 % 1011,8 hPa 0,0 l/m 16,1 km/h (3 Bft) SW 225 10 min 0,203 mm 199 W/m 6,7 C 7,6 C 33,8 km/h (5 Bft) 100 %
20.03.2017 12:10 12,2 C 12,2 C 12,4 C 68 % 1011,7 hPa 0,0 l/m 12,9 km/h (3 Bft) SW 225 10 min 0,000 mm 209 W/m 6,5 C 8,6 C 25,7 km/h (4 Bft) 100 %
20.03.2017 12:20 11,9 C 11,9 C 12,2 C 68 % 1011,7 hPa 0,0 l/m 12,9 km/h (3 Bft) W-SW 247 10 min 0,000 mm 172 W/m 6,2 C 8,3 C 33,8 km/h (5 Bft) 100 %
20.03.2017 12:30 11,8 C 11,8 C 11,9 C 70 % 1011,5 hPa 0,0 l/m 12,9 km/h (3 Bft) SW 225 10 min 0,000 mm 200 W/m 6,5 C 8,2 C 27,4 km/h (4 Bft) 100 %
20.03.2017 12:40 11,9 C 11,8 C 11,9 C 68 % 1011,4 hPa 0,0 l/m 12,9 km/h (3 Bft) SW 225 10 min 0,000 mm 197 W/m 6,2 C 8,3 C 24,1 km/h (4 Bft) 100 %
20.03.2017 12:50 12,0 C 11,8 C 12,0 C 69 % 1011,4 hPa 0,0 l/m 8,0 km/h (2 Bft) W-SW 247 10 min 0,000 mm 227 W/m 6,5 C 11,0 C 20,9 km/h (4 Bft) 100 %
20.03.2017 13:00 12,1 C 12,0 C 12,1 C 67 % 1011,3 hPa 0,0 l/m 12,9 km/h (3 Bft) W 270 10 min 0,127 mm 225 W/m 6,2 C 8,5 C 24,1 km/h (4 Bft) 100 %
20.03.2017 13:10 12,1 C 12,1 C 12,1 C 68 % 1011,1 hPa 0,0 l/m 11,3 km/h (2 Bft) W-SW 247 10 min 0,000 mm 236 W/m 6,4 C 9,3 C 29,0 km/h (5 Bft) 100 %
20.03.2017 13:20 12,1 C 12,1 C 12,1 C 68 % 1011,0 hPa 0,0 l/m 9,7 km/h (2 Bft) W 270 10 min 0,000 mm 236 W/m 6,4 C 10,1 C 25,7 km/h (4 Bft) 100 %
20.03.2017 13:30 12,2 C 12,2 C 12,2 C 66 % 1011,0 hPa 0,0 l/m 12,9 km/h (3 Bft) SW 225 10 min 0,000 mm 202 W/m 6,0 C 8,6 C 27,4 km/h (4 Bft) 100 %
20.03.2017 13:40 12,2 C 12,1 C 12,2 C 66 % 1010,9 hPa 0,0 l/m 14,5 km/h (3 Bft) SW 225 10 min 0,000 mm 401 W/m 6,0 C 8,0 C 29,0 km/h (5 Bft) 100 %
20.03.2017 13:50 12,3 C 12,2 C 12,3 C 65 % 1010,9 hPa 0,0 l/m 14,5 km/h (3 Bft) SW 225 10 min 0,000 mm 459 W/m 5,9 C 8,1 C 29,0 km/h (5 Bft) 100 %
20.03.2017 14:00 12,3 C 12,3 C 12,3 C 64 % 1010,8 hPa 0,0 l/m 12,9 km/h (3 Bft) W-SW 247 10 min 0,152 mm 223 W/m 5,7 C 8,8 C 30,6 km/h (5 Bft) 100 %
20.03.2017 14:10 12,4 C 12,3 C 12,4 C 65 % 1010,7 hPa 0,0 l/m 9,7 km/h (2 Bft) W-SW 247 10 min 0,000 mm 260 W/m 6,0 C 10,4 C 29,0 km/h (5 Bft) 100 %
20.03.2017 14:20 12,4 C 12,4 C 12,4 C 64 % 1010,7 hPa 0,0 l/m 11,3 km/h (2 Bft) W-SW 247 10 min 0,000 mm 253 W/m 5,8 C 9,6 C 25,7 km/h (4 Bft) 88 %
20.03.2017 14:30 12,2 C 12,2 C 12,4 C 64 % 1010,7 hPa 0,0 l/m 16,1 km/h (3 Bft) W-SW 247 10 min 0,000 mm 209 W/m 5,6 C 7,4 C 25,7 km/h (4 Bft) 100 %
20.03.2017 14:40 12,1 C 12,1 C 12,2 C 65 % 1010,5 hPa 0,0 l/m 14,5 km/h (3 Bft) W-SW 247 10 min 0,000 mm 206 W/m 5,7 C 7,9 C 25,7 km/h (4 Bft) 100 %
20.03.2017 14:50 12,3 C 12,1 C 12,3 C 67 % 1010,3 hPa 0,0 l/m 6,4 km/h (2 Bft) SW 225 10 min 0,000 mm 260 W/m 6,4 C 12,3 C 19,3 km/h (3 Bft) 100 %
20.03.2017 15:00 12,2 C 12,2 C 12,3 C 66 % 1010,3 hPa 0,0 l/m 12,9 km/h (3 Bft) SW 225 10 min 0,152 mm 211 W/m 6,0 C 8,6 C 24,1 km/h (4 Bft) 99 %
20.03.2017 15:10 12,1 C 12,1 C 12,3 C 68 % 1010,2 hPa 0,0 l/m 11,3 km/h (2 Bft) SW 225 0 min 0,000 mm 135 W/m 6,4 C 9,3 C 22,5 km/h (4 Bft) 100 %
20.03.2017 15:20 12,0 C 12,0 C 12,1 C 69 % 1010,2 hPa 0,0 l/m 8,0 km/h (2 Bft) SW 225 0 min 0,000 mm 128 W/m 6,5 C 11,0 C 24,1 km/h (4 Bft) 100 %
20.03.2017 15:30 12,0 C 12,0 C 12,0 C 66 % 1010,1 hPa 0,0 l/m 11,3 km/h (2 Bft) SW 225 0 min 0,000 mm 141 W/m 5,8 C 9,1 C 22,5 km/h (4 Bft) 100 %
20.03.2017 15:40 11,9 C 11,9 C 12,0 C 67 % 1010,0 hPa 0,0 l/m 11,3 km/h (2 Bft) W-SW 247 0 min 0,000 mm 130 W/m 6,0 C 9,0 C 25,7 km/h (4 Bft) 100 %
20.03.2017 15:50 12,1 C 11,9 C 12,1 C 67 % 1009,8 hPa 0,0 l/m 11,3 km/h (2 Bft) SW 225 10 min 0,000 mm 214 W/m 6,2 C 9,3 C 22,5 km/h (4 Bft) 100 %
20.03.2017 16:00 12,2 C 12,1 C 12,2 C 68 % 1009,7 hPa 0,0 l/m 8,0 km/h (2 Bft) SW 225 10 min 0,102 mm 162 W/m 6,5 C 11,2 C 22,5 km/h (4 Bft) 100 %
20.03.2017 16:10 12,2 C 12,2 C 12,2 C 66 % 1009,4 hPa 0,0 l/m 12,9 km/h (3 Bft) W 270 10 min 0,000 mm 160 W/m 6,0 C 8,6 C 27,4 km/h (4 Bft) 100 %
20.03.2017 16:20 12,3 C 12,2 C 12,3 C 68 % 1009,5 hPa 0,0 l/m 9,7 km/h (2 Bft) W-SW 247 0 min 0,000 mm 132 W/m 6,6 C 10,3 C 22,5 km/h (4 Bft) 100 %
20.03.2017 16:30 12,5 C 12,3 C 12,6 C 67 % 1009,5 hPa 0,0 l/m 8,0 km/h (2 Bft) W 270 0 min 0,000 mm 120 W/m 6,5 C 11,5 C 22,5 km/h (4 Bft) 100 %
20.03.2017 16:40 12,3 C 12,3 C 12,6 C 68 % 1009,4 hPa 0,0 l/m 12,9 km/h (3 Bft) W-SW 247 0 min 0,000 mm 113 W/m 6,6 C 8,8 C 24,1 km/h (4 Bft) 99 %
20.03.2017 16:50 12,2 C 12,2 C 12,3 C 68 % 1009,4 hPa 0,0 l/m 8,0 km/h (2 Bft) W-SW 247 0 min 0,000 mm 93 W/m 6,5 C 11,2 C 19,3 km/h (3 Bft) 97 %
20.03.2017 17:10 12,2 C 12,2 C 12,3 C 69 % 1009,3 hPa 0,0 l/m 6,1 km/h (2 Bft) W-SW 237 0 min 0,079 mm 62 W/m 6,7 C 12,2 C 16,1 km/h (3 Bft) 100 %
20.03.2017 17:20 12,2 C 12,2 C 12,2 C 68 % 1009,2 hPa 0,0 l/m 7,7 km/h (2 Bft) W-SW 248 0 min 0,000 mm 65 W/m 6,5 C 11,3 C 19,3 km/h (3 Bft) 100 %
20.03.2017 17:30 12,1 C 12,1 C 12,2 C 69 % 1009,1 hPa 0,0 l/m 6,9 km/h (2 Bft) SW 229 0 min 0,000 mm 35 W/m 6,6 C 11,8 C 25,7 km/h (4 Bft) 100 %
20.03.2017 17:40 11,9 C 11,9 C 12,1 C 69 % 1008,9 hPa 0,0 l/m 9,1 km/h (2 Bft) SW 233 0 min 0,000 mm 28 W/m 6,4 C 10,2 C 20,9 km/h (4 Bft) 100 %
20.03.2017 17:50 11,7 C 11,7 C 11,9 C 70 % 1008,9 hPa 0,0 l/m 7,0 km/h (2 Bft) S-SW 208 0 min 0,000 mm 23 W/m 6,4 C 11,3 C 17,7 km/h (3 Bft) 100 %
20.03.2017 18:00 11,6 C 11,6 C 11,7 C 71 % 1008,9 hPa 0,0 l/m 6,8 km/h (2 Bft) S-SW 198 0 min 0,000 mm 16 W/m 6,5 C 11,3 C 14,5 km/h (3 Bft) 100 %
20.03.2017 18:10 11,5 C 11,5 C 11,6 C 71 % 1009,0 hPa 0,0 l/m 6,5 km/h (2 Bft) S-SW 202 0 min 0,051 mm 9 W/m 6,4 C 11,5 C 12,9 km/h (3 Bft) 100 %
20.03.2017 18:20 11,4 C 11,4 C 11,5 C 73 % 1009,0 hPa 0,0 l/m 3,8 km/h (1 Bft) S-SW 212 0 min 0,000 mm 5 W/m 6,7 C 11,4 C 9,7 km/h (2 Bft) 100 %
20.03.2017 18:30 11,3 C 11,3 C 11,4 C 73 % 1009,1 hPa 0,0 l/m 0,0 km/h (0 Bft) S-SW 208 0 min 0,000 mm 0 W/m 6,6 C 11,3 C 1,6 km/h (1 Bft) 100 %
20.03.2017 18:40 11,1 C 11,1 C 11,3 C 74 % 1009,1 hPa 0,0 l/m 1,8 km/h (1 Bft) S-SW 202 0 min 0,000 mm 0 W/m 6,6 C 11,1 C 9,7 km/h (2 Bft) 100 %
20.03.2017 18:50 11,0 C 11,0 C 11,1 C 74 % 1009,1 hPa 0,0 l/m 2,6 km/h (1 Bft) S-SW 206 0 min 0,000 mm 0 W/m 6,5 C 11,0 C 9,7 km/h (2 Bft) 100 %
20.03.2017 19:00 11,0 C 11,0 C 11,0 C 74 % 1009,1 hPa 0,0 l/m 0,3 km/h (0 Bft) SW 230 0 min 0,026 mm 0 W/m 6,5 C 11,0 C 6,4 km/h (2 Bft) 100 %
20.03.2017 19:10 11,0 C 10,9 C 11,0 C 73 % 1009,0 hPa 0,0 l/m 3,0 km/h (1 Bft) W-SW 246 0 min 0,000 mm 0 W/m 6,4 C 11,0 C 12,9 km/h (3 Bft) 100 %
20.03.2017 19:20 11,0 C 11,0 C 11,1 C 72 % 1009,0 hPa 0,0 l/m 5,1 km/h (1 Bft) S-SW 209 0 min 0,000 mm 0 W/m 6,2 C 11,0 C 16,1 km/h (3 Bft) 100 %
20.03.2017 19:30 10,9 C 10,9 C 11,1 C 73 % 1008,8 hPa 0,0 l/m 4,3 km/h (1 Bft) S 181 0 min 0,000 mm 0 W/m 6,3 C 10,9 C 16,1 km/h (3 Bft) 100 %
20.03.2017 19:40 10,9 C 10,9 C 10,9 C 73 % 1009,0 hPa 0,0 l/m 6,5 km/h (2 Bft) S-SW 198 0 min 0,000 mm 0 W/m 6,3 C 10,9 C 17,7 km/h (3 Bft) 100 %
20.03.2017 19:50 10,8 C 10,8 C 10,9 C 72 % 1009,2 hPa 0,0 l/m 5,0 km/h (1 Bft) SW 221 0 min 0,000 mm 0 W/m 6,0 C 10,8 C 16,1 km/h (3 Bft) 100 %
20.03.2017 20:00 10,7 C 10,7 C 10,8 C 72 % 1009,3 hPa 0,0 l/m 7,4 km/h (2 Bft) W-SW 252 0 min 0,025 mm 0 W/m 5,9 C 10,0 C 22,5 km/h (4 Bft) 100 %
20.03.2017 20:10 10,7 C 10,7 C 10,7 C 72 % 1009,3 hPa 0,0 l/m 5,7 km/h (1 Bft) SW 225 0 min 0,000 mm 0 W/m 5,9 C 10,7 C 19,3 km/h (3 Bft) 100 %
20.03.2017 20:20 10,7 C 10,7 C 10,7 C 72 % 1009,4 hPa 0,0 l/m 5,8 km/h (2 Bft) W-NW 301 0 min 0,000 mm 0 W/m 5,9 C 10,7 C 25,7 km/h (4 Bft) 100 %
20.03.2017 20:30 10,7 C 10,7 C 10,7 C 72 % 1009,4 hPa 0,0 l/m 5,5 km/h (1 Bft) W 277 0 min 0,000 mm 0 W/m 5,9 C 10,7 C 16,1 km/h (3 Bft) 100 %
20.03.2017 20:40 10,7 C 10,7 C 10,7 C 72 % 1009,7 hPa 0,0 l/m 10,8 km/h (2 Bft) W-SW 257 0 min 0,000 mm 0 W/m 5,9 C 7,9 C 30,6 km/h (5 Bft) 100 %
20.03.2017 20:50 10,7 C 10,7 C 10,7 C 71 % 1009,5 hPa 0,0 l/m 10,6 km/h (2 Bft) SW 235 0 min 0,000 mm 0 W/m 5,7 C 8,0 C 27,4 km/h (4 Bft) 100 %
20.03.2017 21:00 10,6 C 10,6 C 10,7 C 71 % 1009,4 hPa 0,0 l/m 12,5 km/h (3 Bft) W-SW 252 0 min 0,051 mm 0 W/m 5,6 C 7,0 C 29,0 km/h (5 Bft) 100 %
20.03.2017 21:10 10,4 C 10,4 C 10,6 C 71 % 1009,4 hPa 0,0 l/m 9,7 km/h (2 Bft) W 270 0 min 0,000 mm 0 W/m 5,4 C 8,2 C 24,1 km/h (4 Bft) 97 %
20.03.2017 21:20 10,3 C 10,3 C 10,4 C 72 % 1009,6 hPa 0,0 l/m 9,7 km/h (2 Bft) W 270 0 min 0,000 mm 0 W/m 5,5 C 8,1 C 25,7 km/h (4 Bft) 98 %
20.03.2017 21:30 10,1 C 10,1 C 10,3 C 72 % 1009,6 hPa 0,0 l/m 9,7 km/h (2 Bft) W-SW 247 0 min 0,000 mm 0 W/m 5,3 C 7,9 C 24,1 km/h (4 Bft) 97 %
20.03.2017 21:40 10,0 C 10,0 C 10,1 C 72 % 1009,6 hPa 0,0 l/m 11,3 km/h (2 Bft) W-SW 247 0 min 0,000 mm 0 W/m 5,2 C 6,9 C 27,4 km/h (4 Bft) 98 %
20.03.2017 21:50 9,9 C 9,8 C 10,0 C 72 % 1009,8 hPa 0,0 l/m 9,7 km/h (2 Bft) W-SW 247 0 min 0,000 mm 0 W/m 5,1 C 7,7 C 20,9 km/h (4 Bft) 97 %
20.03.2017 22:00 9,8 C 9,8 C 9,8 C 73 % 1010,0 hPa 0,0 l/m 8,0 km/h (2 Bft) W 270 0 min 0,051 mm 0 W/m 5,2 C 8,6 C 20,9 km/h (4 Bft) 98 %
20.03.2017 22:10 9,7 C 9,7 C 9,8 C 73 % 1009,8 hPa 0,0 l/m 4,8 km/h (1 Bft) W-SW 247 0 min 0,000 mm 0 W/m 5,1 C 9,7 C 19,3 km/h (3 Bft) 97 %
20.03.2017 22:20 9,6 C 9,6 C 9,7 C 74 % 1009,9 hPa 0,0 l/m 8,0 km/h (2 Bft) W 270 0 min 0,000 mm 0 W/m 5,2 C 8,4 C 19,3 km/h (3 Bft) 98 %
20.03.2017 22:30 9,6 C 9,6 C 9,6 C 74 % 1010,0 hPa 0,0 l/m 14,5 km/h (3 Bft) W-SW 247 0 min 0,000 mm 0 W/m 5,2 C 4,9 C 30,6 km/h (5 Bft) 97 %
20.03.2017 22:40 9,6 C 9,5 C 9,6 C 74 % 1010,1 hPa 0,0 l/m 8,0 km/h (2 Bft) W-SW 247 0 min 0,000 mm 0 W/m 5,2 C 8,4 C 27,4 km/h (4 Bft) 98 %
20.03.2017 22:50 9,5 C 9,5 C 9,6 C 74 % 1009,9 hPa 0,0 l/m 11,3 km/h (2 Bft) W-SW 247 0 min 0,000 mm 0 W/m 5,1 C 6,3 C 27,4 km/h (4 Bft) 98 %
20.03.2017 23:00 9,4 C 9,4 C 9,5 C 75 % 1009,9 hPa 0,0 l/m 8,0 km/h (2 Bft) W 270 0 min 0,025 mm 0 W/m 5,2 C 8,2 C 19,3 km/h (3 Bft) 97 %
20.03.2017 23:10 9,3 C 9,3 C 9,4 C 75 % 1009,8 hPa 0,0 l/m 6,4 km/h (2 Bft) SW 225 0 min 0,000 mm 0 W/m 5,1 C 9,3 C 20,9 km/h (4 Bft) 98 %
20.03.2017 23:20 9,2 C 9,2 C 9,3 C 76 % 1009,8 hPa 0,0 l/m 3,2 km/h (1 Bft) SW 225 0 min 0,000 mm 0 W/m 5,2 C 9,2 C 16,1 km/h (3 Bft) 98 %
20.03.2017 23:30 9,1 C 9,1 C 9,2 C 76 % 1009,8 hPa 0,0 l/m 3,2 km/h (1 Bft) SW 225 0 min 0,000 mm 0 W/m 5,1 C 9,1 C 11,3 km/h (2 Bft) 98 %
20.03.2017 23:40 8,9 C 8,9 C 9,1 C 77 % 1009,8 hPa 0,0 l/m 6,4 km/h (2 Bft) SW 225 0 min 0,000 mm 0 W/m 5,1 C 8,9 C 22,5 km/h (4 Bft) 96 %
20.03.2017 23:50 8,8 C 8,8 C 8,9 C 78 % 1010,0 hPa 0,0 l/m 6,4 km/h (2 Bft) S-SW 202 0 min 0,000 mm 0 W/m 5,2 C 8,8 C 17,7 km/h (3 Bft) 98 %
_ Min-Zeit 23:50 23:50 23:50 14:00 19:30 - 18:30 - - - - - 23:40 00:10 18:30 14:20
Minimum _ 8,8 C 8,8 C 8,9 C 64 % 1008,8 hPa - 0,0 km/h (0 Bft) - - - - - 5,1 C 4,9 C 1,6 km/h (1 Bft) 88 %
_ Max-Zeit 11:50 11:50 11:50 00:00 06:20 00:00 11:50 - - 09:10 12:00 11:40 00:00 14:50 11:50 00:10
Maximum _ 13,2 C 12,8 C 13,2 C 90 % 1012,5 hPa 0,0 l/m 17,7 km/h
SW (3 Bft)
- - 10 min 0,203 mm 946 W/m 8,1 C 12,3 C 37,0 km/h
SW (5 Bft)
100 %
Durchschnitt _ 10,6 C 10,5 C 10,6 C 74 % 1011,0 hPa #0,0 l/m 9,6 km/h (2 Bft) W-SW - #6:30 h #1,651 mm 190 W/m 6,2 C 8,4 C 23,4 km/h (4 Bft) 99 %
PRIVATE WETTERSTATION BILLIGHEIM-ALLFELD - www.neckar-odenwald-wetter.de - Holger Sonntag